This is the latest recevied weather packets stored in our database for station/object HP1PAR-14. If no packets are shown the sender has not sent any weather packets the latest 10 day(s).
| Time | Temp. | Humidity | Pressure | Rain* | Wind** | Luminosity | Snow |
|---|---|---|---|---|---|---|---|
| 1787986995 | 20° C | 100% | 1009.7 hPa | 0 mm | - | - | - |
| 1787983394 | 19.44° C | 99% | 1011 hPa | 0 mm | - | - | - |
| 1787981593 | 19.44° C | 99% | 1011.6 hPa | 0 mm | - | - | - |
| 1787979793 | 19.44° C | 99% | 1012 hPa | 0 mm | - | - | - |
| 1787977992 | 20° C | 99% | 1011.5 hPa | 0 mm | - | - | - |
| 1787976192 | 20° C | 99% | 1011 hPa | 0 mm | - | - | - |
| 1787974391 | 20° C | 99% | 1011.9 hPa | 0 mm | - | - | - |
| 1787972591 | 20° C | 98% | 1012.8 hPa | 0 mm | - | - | - |
| 1787970790 | 20° C | 98% | 1012.3 hPa | 0 mm | - | - | - |
| 1787968990 | 20° C | 98% | 1011.4 hPa | 0 mm | - | - | - |
| 1787967189 | 20° C | 98% | 1010.7 hPa | 0 mm | - | - | - |
| 1787965389 | 20° C | 99% | 1010.2 hPa | 0 mm | - | - | - |
| 1787963588 | 20.56° C | 99% | 1009.9 hPa | 0 mm | - | - | - |
| 1787961788 | 20.56° C | 97% | 1010 hPa | 0 mm | - | - | - |
| 1787959987 | 21.11° C | 97% | 1009.6 hPa | 0 mm | - | - | - |
| 1787958187 | 21.11° C | 95% | 1009.2 hPa | 0 mm | - | - | - |
| 1787956386 | 21.67° C | 95% | 1008.9 hPa | 0 mm | - | - | - |
| 1787956177 | 21.67° C | 94% | 1008.7 hPa | 0 mm | - | - | - |
| 1787956092 | 21.67° C | 94% | 1008.7 hPa | 0 mm | - | - | - |
| 1787955601 | 21.67° C | 94% | 1008.7 hPa | 0 mm | - | - | - |
| 1787955457 | 21.67° C | 94% | 1008.7 hPa | 0 mm | - | - | - |
| 1787954974 | 21.67° C | 94% | 1008.6 hPa | 0 mm | - | - | - |
| 1787954485 | 21.67° C | 94% | 1008.6 hPa | 0 mm | - | - | - |
| 1787954245 | 22.22° C | 94% | 1008.5 hPa | 0 mm | - | - | - |
| 1787953082 | 22.22° C | 94% | 1008.4 hPa | 0 mm | - | - | - |
* Rain latest hour (hover to see other rain measurements)
** Current wind speed in m/s (hover to see current wind gust speed)